Location: Pinhead Observatory
(34.4473°N, 118.1985°W)
Time: 21:28:02
(UTC-08:00)

CZ-4C R/B - Visible Passes

Search period start: 25 February 2017 00:00
Search period end: 07 March 2017 00:00
Orbit: 724 x 1279 km, 63.4° (Epoch: 24 February)

Date Brightness Start Highest point End Pass type
(mag) Time Alt. Az. Time Alt. Az. Time Alt. Az.
25 Feb 2.9 03:52:01 45° ESE 03:52:01 45° ESE 03:57:04 10° NE visible
25 Feb 3.4 05:37:15 14° W 05:40:27 23° NW 05:45:04 10° N visible
26 Feb 2.0 04:25:11 67° NW 04:25:11 67° NW 04:30:49 10° NNE visible
27 Feb 4.2 03:12:59 23° ENE 03:12:59 23° ENE 03:15:27 10° NE visible
27 Feb 3.0 04:58:12 27° WNW 04:58:54 28° NW 05:03:54 10° N visible
28 Feb 3.3 03:45:55 37° NNE 03:45:55 37° NNE 03:49:25 10° NNE visible
28 Feb 3.9 05:31:07 11° WNW 05:33:12 14° NW 05:36:05 10° N visible
01 Mar 5.1 02:33:32 11° NE 02:33:32 11° NE 02:33:44 10° NE visible
01 Mar 3.2 04:18:44 31° NNW 04:18:44 31° NNW 04:22:40 10° NNE visible
02 Mar 4.4 03:06:17 20° NE 03:06:17 20° NE 03:07:58 10° NE visible
02 Mar 3.9 04:51:29 16° NW 04:51:33 16° NW 04:55:11 10° N visible
03 Mar 3.9 03:38:59 23° N 03:38:59 23° N 03:41:24 10° NNE visible
04 Mar 5.1 02:26:26 10° NE 02:26:26 10° NE 02:26:30 10° NE visible
04 Mar 4.0 04:11:37 18° NNW 04:11:37 18° NNW 04:14:08 10° N visible
05 Mar 4.6 02:59:01 15° NNE 02:59:01 15° NNE 03:00:04 10° NNE visible
06 Mar 4.4 03:31:33 15° N 03:31:33 15° N 03:33:01 10° N visible
